Temperature
17 17 17 17 16 15 15 15 15 16 16 17 16 15 15 15 14 13 12 11 10 9 9 8 7 7 7 6 6 6 5 5 5 4 4 3 3 3 2 2 2 1 1 0
16 16 16 15 15 15 15 15 15 15 15 16 16 16 15 14 13 12 11 10 9 9 8 7 7 6 6 6 5 5 5 4 4 3 3 3 2 2 2 1 1 0 -0 -1
14 15 14 13 14 15 15 15 15 14 15 15 14 14 14 13 13 12 11 10 9 8 7 7 6 6 6 5 5 5 4 4 3 3 2 2 2 1 1 0 -0 -1 -1 -1
13 14 11 15 16 16 16 16 16 15 14 14 13 13 13 12 12 11 10 9 8 7 6 6 6 5 5 5 5 4 4 3 3 2 2 1 1 1 0 -0 -1 -1 -2 -2
12 12 12 15 14 14 14 14 15 15 14 12 11 10 10 11 10 10 9 8 7 6 6 5 5 5 5 4 4 3 3 2 2 1 1 1 0 -0 -1 -1 -2 -2 -2 -3
11 11 11 14 13 14 14 12 14 13 12 10 10 7 8 9 9 8 8 7 6 6 5 5 5 4 4 4 3 3 2 2 1 1 0 -0 -1 -1 -1 -2 -2 -3 -3 -3
10 10 11 13 12 13 11 12 12 13 12 10 9 8 9 8 8 7 7 6 6 5 5 5 4 4 3 3 3 2 1 1 1 0 -0 -1 -1 -2 -2 -2 -3 -3 -4 -4
10 10 10 10 11 11 11 11 12 12 11 10 9 8 8 7 6 6 6 5 5 5 4 4 4 3 3 2 2 1 1 1 0 -0 -1 -1 -2 -2 -2 -3 -3 -4 -4 -5
12 11 12 12 12 12 12 11 11 11 10 9 8 7 7 6 5 5 5 5 4 4 4 4 3 2 2 2 1 1 0 -0 -0 -1 -1 -2 -2 -3 -3 -4 -4 -4 -5 -6
12 12 11 12 11 11 11 10 10 10 9 9 8 7 6 5 5 5 4 4 4 4 3 3 2 2 1 1 0 -0 -1 -1 -1 -2 -2 -2 -3 -3 -4 -4 -5 -5 -6 -6
11 11 11 11 11 10 10 9 9 9 8 8 7 6 5 5 4 4 4 4 3 3 3 2 2 1 1 0 -0 -1 -1 -1 -2 -2 -3 -3 -3 -4 -5 -5 -6 -6 -6 -6
10 11 10 10 10 10 9 8 8 8 7 6 6 6 5 4 4 4 3 3 3 2 2 2 1 1 0 -0 -1 -2 -2 -2 -2 -3 -3 -4 -4 -4 -5 -6 -6 -6 -7 -7
11 11 11 10 9 9 8 7 7 7 6 6 5 5 4 4 3 3 3 2 2 2 1 1 0 0 -0 -1 -2 -2 -3 -3 -3 -3 -4 -4 -5 -6 -6 -6 -6 -7 -7 -7
10 10 8 8 8 7 7 6 6 5 5 5 4 4 3 3 3 3 2 2 1 1 1 0 -0 -0 -1 -2 -2 -3 -3 -3 -4 -4 -5 -5 -6 -6 -7 -7 -7 -7 -7 -7
8 8 8 7 6 6 5 5 5 4 4 4 3 3 3 2 2 2 2 1 1 1 0 -0 -1 -1 -1 -2 -3 -3 -4 -4 -4 -5 -5 -6 -6 -7 -7 -7 -8 -8 -8 -8
6 6 6 5 5 4 4 4 4 3 3 3 3 2 2 2 2 1 1 1 -0 -0 -1 -1 -1 -1 -2 -3 -4 -4 -4 -5 -5 -6 -6 -7 -7 -7 -8 -8 -8 -8 -8 -8
5 4 4 4 4 3 3 3 3 3 3 2 2 2 1 1 1 1 1 -0 -1 -1 -1 -1 -2 -2 -3 -4 -4 -5 -5 -5 -6 -7 -7 -7 -8 -8 -8 -8 -8 -9 -9 -9
5 5 5 4 4 3 3 2 2 2 2 2 1 1 1 1 0 0 -0 -1 -1 -1 -1 -2 -2 -3 -4 -4 -5 -5 -6 -6 -7 -7 -8 -8 -8 -8 -8 -8 -9 -9 -9 -9
4 4 4 3 3 3 2 2 2 2 1 1 1 1 0 0 -0 -1 -1 -1 -2 -2 -2 -2 -3 -4 -4 -5 -6 -6 -7 -7 -7 -8 -8 -8 -8 -9 -9 -9 -9 -10 -10 -10
3 3 3 2 2 2 2 2 1 1 1 1 0 -0 -0 -1 -1 -1 -2 -2 -2 -2 -3 -4 -4 -5 -5 -6 -6 -7 -7 -8 -8 -8 -9 -9 -9 -9 -9 -10 -10 -10 -10 -10
2 2 2 2 1 1 1 1 1 1 0 -0 -0 -1 -1 -1 -2 -2 -3 -3 -2 -3 -4 -4 -5 -5 -6 -6 -7 -8 -8 -8 -9 -9 -9 -9 -10 -10 -10 -10 -10 -11 -11 -11
1 1 1 1 1 1 1 0 0 -0 -0 -1 -1 -1 -2 -2 -2 -3 -3 -3 -3 -4 -5 -5 -6 -6 -7 -7 -8 -8 -8 -9 -9 -10 -10 -10 -10 -10 -11 -11 -11 -11 -11 -11
1 1 1 0 0 0 0 -0 -1 -1 -1 -1 -2 -2 -2 -3 -3 -4 -4 -4 -5 -5 -6 -6 -6 -7 -7 -8 -8 -9 -9 -10 -10 -10 -11 -11 -11 -11 -11 -11 -12 -12 -12 -12
0 0 0 -0 -0 -0 -1 -1 -1 -2 -2 -2 -2 -3 -3 -4 -4 -4 -5 -5 -6 -6 -7 -7 -7 -8 -8 -9 -9 -9 -10 -10 -11 -11 -11 -11 -12 -12 -12 -12 -12 -12 -12 -12
-0 -0 -0 -1 -1 -1 -1 -2 -2 -2 -2 -3 -3 -4 -4 -5 -5 -5 -6 -6 -6 -7 -7 -7 -8 -9 -9 -9 -10 -10 -11 -11 -11 -11 -12 -12 -12 -12 -12 -13 -13 -13 -13 -13
-1 -1 -1 -1 -2 -2 -2 -3 -3 -3 -3 -4 -4 -4 -5 -5 -6 -6 -6 -7 -7 -8 -8 -9 -9 -9 -10 -10 -11 -11 -11 -12 -12 -12 -12 -12 -12 -13 -13 -13 -13 -13 -13 -13
-1 -2 -2 -2 -2 -3 -3 -3 -4 -4 -4 -5 -5 -5 -6 -6 -7 -7 -7 -8 -8 -9 -9 -10 -10 -10 -11 -11 -11 -12 -12 -12 -12 -12 -12 -13 -13 -13 -13 -13 -13 -13 -13 -13
Wind_Speed
6 3 3 5 8 11 11 11 8 8 9 5 4 7 9 9 10 10 10 10 9 8 6 6 5 3 3 2 1 1 3 4 6 6 6 7 7 8 9 9 10 10 11 11
5 3 2 5 8 10 12 12 13 12 13 5 2 4 6 7 10 10 10 10 9 8 6 5 4 3 2 1 1 2 4 5 6 6 7 7 8 9 9 10 10 11 11 11
4 3 1 7 11 13 11 10 9 12 8 1 2 4 4 5 7 9 9 9 8 7 6 5 3 2 1 2 2 3 5 6 7 7 7 8 8 9 10 10 10 11 11 11
3 4 8 7 1 4 7 9 10 7 4 5 5 5 5 5 7 8 9 8 7 6 5 4 2 1 1 2 3 5 6 7 7 7 8 8 9 10 10 9 10 10 11 11
4 5 8 6 5 5 5 6 5 5 3 7 9 6 3 4 7 8 8 8 7 6 4 3 1 1 1 3 5 6 7 7 7 7 8 9 10 10 10 10 10 10 10 11
4 5 7 3 2 3 3 5 2 4 7 9 8 4 4 6 9 9 9 7 6 4 3 1 1 1 2 5 6 7 7 7 7 8 9 10 11 11 9 9 10 11 11 10
7 7 8 3 5 6 5 5 3 5 7 9 7 4 7 9 9 8 8 7 5 3 2 1 1 2 4 6 7 8 7 7 8 9 9 10 10 9 10 10 11 10 11 10
7 8 9 7 8 7 5 4 4 5 6 8 7 9 9 8 8 8 6 5 4 2 1 2 2 3 6 7 8 7 7 8 9 9 9 9 10 10 10 10 11 11 11 11
8 8 2 8 6 4 5 5 5 5 6 9 9 8 8 7 7 6 5 3 2 1 2 3 4 5 7 8 7 8 8 9 9 10 9 9 9 10 9 9 9 10 10 11
3 4 7 6 5 4 4 4 5 6 7 8 8 9 8 7 5 4 3 2 1 1 3 5 5 6 7 8 8 8 9 9 9 9 10 9 8 8 8 8 9 10 11 12
5 3 5 5 6 6 5 6 7 7 7 7 8 8 7 5 5 3 2 1 1 3 5 7 7 7 8 8 8 9 9 9 9 9 9 9 9 8 10 9 12 14 12 11
6 5 6 5 7 8 8 7 8 8 7 7 7 7 6 5 3 2 1 1 3 5 6 7 7 8 8 8 8 9 9 9 8 8 8 9 10 11 15 17 24 26 25 23
2 4 4 5 7 7 7 7 7 8 8 8 6 6 5 3 2 1 1 3 5 6 7 7 8 9 9 8 8 9 9 9 8 8 9 10 10 11 14 16 20 23 25 26
5 5 4 4 5 7 8 8 8 8 7 7 6 5 4 2 1 1 3 4 5 6 8 8 9 10 9 8 8 9 9 11 12 9 9 9 10 10 12 15 16 12 16 23
6 4 5 6 8 8 9 8 8 7 7 6 5 4 3 2 2 4 5 5 6 8 8 8 9 10 9 9 9 10 9 8 9 9 9 10 11 11 12 13 14 14 12 14
7 6 8 9 9 9 9 8 8 7 6 5 4 3 2 2 3 5 6 6 7 8 9 9 10 11 10 9 9 9 9 17 17 12 10 11 11 12 12 13 13 13 13 12
9 8 8 9 9 9 8 7 6 6 5 4 3 2 1 3 5 6 7 6 7 8 9 10 11 11 9 9 9 8 9 12 19 14 11 12 12 12 13 13 13 13 13 15
7 7 8 10 9 9 8 7 6 6 4 3 2 1 3 4 6 7 7 8 9 10 10 10 10 10 9 9 9 9 9 9 9 11 12 12 13 12 12 13 13 14 13 15
7 8 9 9 9 8 7 6 5 4 3 2 1 3 4 6 7 8 8 8 10 12 11 9 15 12 10 11 14 9 9 10 11 12 12 17 16 12 12 12 13 13 13 13
9 10 10 10 9 8 6 5 4 3 2 1 2 4 6 7 7 8 8 9 10 10 10 12 12 9 9 10 16 9 9 11 13 13 13 13 13 12 12 13 13 13 13 13
10 10 10 9 8 6 5 4 3 1 1 2 4 6 8 9 8 8 9 11 11 10 11 16 10 8 8 12 17 10 10 12 13 13 13 13 13 13 13 13 13 14 13 13
8 8 8 7 6 4 3 2 1 1 3 4 6 7 8 9 9 9 10 10 12 15 11 8 7 13 17 20 11 10 11 13 13 12 12 12 12 13 13 13 13 14 13 12
7 7 6 5 4 2 1 0 2 3 5 6 7 8 9 9 8 9 12 8 8 15 12 8 15 23 26 16 10 10 11 12 12 12 12 12 12 12 13 14 13 13 12 13
7 6 4 3 2 1 2 4 4 5 6 7 8 9 9 9 9 8 9 14 17 20 12 16 24 26 25 11 9 9 10 11 11 11 12 12 12 12 12 13 13 12 13 14
5 4 2 2 1 3 4 5 5 6 7 7 8 9 8 7 9 9 8 10 17 20 12 16 24 25 15 9 9 10 10 11 13 13 12 12 12 12 13 13 13 13 13 14
2 2 2 3 3 3 3 4 4 5 6 7 7 6 6 6 8 9 9 10 13 18 14 10 11 15 10 10 10 11 10 13 14 12 12 13 13 13 13 13 14 13 13 14
1 1 2 3 3 4 4 4 5 6 6 7 9 8 7 7 8 9 11 10 11 11 10 10 9 9 10 10 11 11 11 11 11 12 12 12 12 12 13 14 13 13 13 14
Wind_Direction
274 92 136 207 204 200 213 228 241 256 270 275 197 181 174 163 158 152 149 149 148 148 142 139 139 138 133 138 181 248 280 284 282 285 290 293 294 293 291 290 290 287 286 285
271 203 211 258 248 230 223 231 245 264 272 292 92 120 144 154 156 157 155 152 146 142 140 143 144 140 133 203 255 270 278 279 282 285 286 286 287 287 287 286 286 286 285 285
249 211 217 250 230 228 229 224 223 244 254 98 113 124 143 150 151 154 148 142 142 144 141 137 132 127 184 259 281 283 279 279 281 280 282 283 287 290 288 287 286 286 286 286
225 189 235 236 155 203 229 243 230 230 197 155 131 103 84 113 139 140 135 136 137 132 124 120 118 142 241 280 285 280 279 280 280 283 286 287 288 287 287 285 286 287 288 288
193 226 264 245 194 176 197 256 233 222 159 112 101 82 59 81 110 120 121 120 119 117 119 127 154 217 269 283 283 283 283 284 288 293 293 291 289 286 286 288 289 287 287 289
188 208 238 233 129 109 118 264 226 149 136 134 128 159 198 129 104 101 102 104 107 108 112 142 235 276 288 283 285 284 285 286 291 293 290 289 286 286 288 288 288 289 288 288
210 225 250 175 151 130 171 233 130 130 144 152 167 172 133 119 110 109 110 113 117 127 155 223 271 292 281 280 279 280 285 290 291 288 286 285 285 286 287 288 289 289 290 289
196 222 241 160 155 186 193 144 142 143 147 141 124 113 117 118 118 119 120 126 130 141 235 275 288 283 279 277 278 284 289 289 287 285 287 291 288 288 287 290 293 294 295 294
197 209 178 161 166 139 129 144 149 148 138 134 136 136 133 131 132 134 136 139 141 195 275 282 280 275 277 279 286 290 288 285 285 287 286 286 287 290 293 291 290 293 293 295
240 187 161 157 128 141 146 142 133 131 133 137 143 143 143 142 142 145 146 155 176 271 282 283 284 283 279 285 290 289 287 287 289 291 290 287 285 285 288 289 290 292 293 295
238 186 140 187 188 169 146 127 122 119 126 137 139 142 143 144 148 150 150 163 237 268 276 280 285 286 286 288 291 290 287 288 290 288 289 291 287 281 286 279 285 294 293 293
212 191 178 190 176 161 154 154 147 137 128 126 133 136 134 139 139 139 163 239 270 273 277 283 289 289 288 288 288 288 290 289 289 288 289 289 292 293 288 288 295 296 297 297
146 94 101 116 134 142 150 147 141 138 138 133 126 126 129 132 133 146 245 272 274 277 280 285 288 287 288 289 290 287 286 289 289 287 290 290 291 296 300 300 296 296 297 300
125 117 125 145 147 136 129 126 122 120 122 125 125 122 121 127 154 248 266 272 280 284 284 284 285 285 291 297 296 290 288 292 294 287 286 288 289 291 294 298 302 298 297 300
169 163 155 139 129 124 125 127 128 130 127 122 120 125 135 175 243 263 274 281 282 280 280 283 286 289 295 295 292 289 290 289 288 285 285 287 290 291 292 292 294 297 299 300
154 133 130 139 143 140 141 144 144 144 138 133 133 142 162 224 263 273 274 274 279 282 284 286 285 286 289 289 288 287 286 291 296 294 291 292 292 291 291 292 293 295 297 300
148 157 161 160 157 153 149 146 140 136 130 132 136 135 230 273 276 277 280 285 284 281 281 281 282 284 284 285 286 287 286 290 295 295 290 290 290 289 289 290 292 294 294 297
163 159 157 155 151 142 134 126 119 118 123 128 127 212 262 271 279 285 290 292 290 285 281 277 278 283 283 284 285 284 285 285 286 287 290 290 291 289 290 291 292 293 295 298
122 120 118 118 121 121 120 117 116 117 125 142 197 254 268 274 277 280 285 288 288 289 286 277 289 291 283 284 294 285 284 287 290 290 290 292 295 291 291 291 292 293 296 298
103 103 102 101 101 108 113 115 116 123 136 161 252 272 277 278 280 284 285 280 273 271 276 284 287 281 281 285 295 287 285 288 291 292 293 292 292 292 293 294 293 294 296 296
107 106 106 106 103 103 110 114 119 145 229 250 259 266 273 278 280 280 282 286 282 275 280 291 292 285 289 293 297 291 290 291 292 292 293 293 293 294 295 296 296 297 297 297
112 111 110 110 110 107 104 107 131 246 270 271 269 270 275 280 280 278 268 272 283 289 293 285 284 293 300 301 295 292 291 292 292 292 292 292 293 294 295 296 296 296 296 296
109 109 107 107 109 109 88 265 250 254 261 265 269 272 273 275 277 283 288 282 282 294 299 287 295 301 303 303 294 291 291 292 293 293 293 293 293 293 294 295 295 295 295 295
104 103 104 102 97 99 272 267 259 255 258 263 265 265 268 277 278 266 268 289 299 299 296 295 301 303 306 302 292 290 289 290 291 291 291 292 293 293 293 294 294 295 294 294
110 115 127 148 217 246 256 268 276 274 270 268 267 265 261 259 271 282 283 288 295 300 296 298 302 304 304 292 290 289 289 288 290 293 293 296 295 295 294 293 293 295 296 295
129 163 208 223 233 249 260 267 271 274 279 283 282 277 275 274 277 285 289 289 289 296 298 294 294 297 293 289 289 289 289 293 295 294 291 292 293 293 294 293 293 294 295 294
169 230 253 268 265 254 255 263 270 277 279 283 289 289 287 289 289 290 291 293 294 293 294 294 293 292 292 292 291 290 290 290 290 290 291 292 292 292 293 292 293 293 293 293
Height
1471 1471 1473 1476 1478 1481 1486 1485 1488 1481 1478 1474 1474 1475 1476 1479 1482 1486 1490 1493 1496 1499 1502 1504 1505 1505 1505 1505 1505 1504 1502 1500 1498 1496 1493 1490 1486 1482 1478 1474 1470 1465 1461 1456
1474 1471 1474 1477 1476 1476 1478 1478 1478 1477 1475 1469 1470 1471 1474 1477 1480 1483 1487 1490 1494 1497 1499 1500 1501 1502 1502 1501 1501 1499 1498 1495 1493 1490 1487 1484 1480 1476 1471 1467 1463 1458 1454 1449
1480 1473 1476 1482 1472 1471 1471 1468 1470 1474 1471 1469 1470 1471 1473 1475 1478 1481 1484 1488 1491 1494 1496 1497 1498 1498 1498 1497 1496 1495 1493 1490 1488 1485 1481 1478 1473 1469 1465 1460 1455 1451 1446 1442
1478 1479 1490 1469 1459 1459 1461 1461 1461 1462 1464 1466 1469 1471 1473 1474 1476 1479 1483 1486 1489 1491 1493 1494 1495 1495 1494 1493 1492 1490 1488 1485 1482 1479 1475 1471 1467 1462 1458 1453 1448 1443 1438 1434
1481 1483 1475 1462 1458 1459 1461 1461 1457 1459 1462 1465 1468 1471 1474 1475 1476 1478 1481 1484 1486 1488 1490 1491 1491 1491 1490 1489 1487 1485 1483 1480 1477 1473 1469 1465 1460 1455 1451 1446 1441 1436 1431 1426
1478 1482 1480 1460 1457 1455 1459 1465 1456 1457 1460 1464 1468 1475 1474 1474 1475 1477 1479 1482 1484 1485 1487 1487 1488 1487 1486 1484 1482 1480 1477 1474 1471 1467 1463 1458 1453 1449 1444 1439 1433 1428 1423 1419
1476 1478 1467 1455 1456 1457 1469 1463 1457 1457 1459 1463 1466 1469 1470 1472 1474 1476 1478 1480 1482 1483 1484 1484 1484 1483 1481 1479 1477 1475 1472 1468 1465 1461 1457 1452 1447 1442 1437 1431 1426 1420 1415 1410
1469 1474 1467 1454 1455 1458 1456 1455 1456 1457 1459 1462 1464 1466 1468 1471 1473 1475 1476 1478 1479 1480 1480 1480 1480 1478 1476 1474 1472 1469 1465 1462 1458 1454 1450 1445 1440 1435 1430 1424 1418 1412 1407 1401
1452 1454 1447 1447 1449 1450 1451 1453 1454 1456 1458 1460 1463 1465 1467 1470 1471 1473 1475 1476 1477 1477 1477 1476 1475 1474 1471 1469 1466 1462 1459 1455 1451 1447 1442 1438 1433 1428 1422 1417 1411 1405 1399 1393
1444 1443 1444 1446 1447 1449 1450 1451 1453 1455 1457 1458 1461 1463 1466 1468 1470 1471 1472 1473 1474 1474 1473 1472 1471 1469 1466 1463 1460 1456 1452 1448 1444 1439 1434 1430 1426 1421 1416 1410 1404 1398 1392 1386
1442 1441 1443 1444 1445 1447 1448 1449 1451 1453 1455 1457 1459 1461 1464 1466 1467 1469 1470 1470 1470 1470 1469 1467 1465 1463 1460 1457 1454 1449 1445 1441 1436 1432 1427 1422 1417 1413 1408 1403 1399 1393 1386 1381
1439 1436 1439 1440 1441 1443 1445 1447 1449 1451 1453 1456 1458 1460 1462 1464 1465 1466 1467 1467 1467 1465 1464 1462 1460 1457 1454 1451 1447 1442 1438 1433 1429 1424 1419 1414 1408 1403 1398 1395 1390 1386 1381 1376
1432 1433 1435 1437 1439 1441 1443 1445 1447 1449 1451 1453 1456 1458 1460 1461 1463 1463 1464 1463 1462 1461 1459 1456 1453 1450 1447 1444 1440 1436 1431 1426 1421 1417 1411 1406 1401 1395 1387 1382 1380 1376 1372 1367
1429 1431 1433 1435 1437 1439 1441 1443 1445 1448 1450 1452 1454 1456 1457 1459 1460 1460 1460 1459 1457 1455 1453 1450 1447 1444 1441 1437 1433 1428 1424 1419 1414 1409 1404 1399 1394 1389 1383 1375 1369 1364 1361 1358
1427 1428 1430 1432 1434 1437 1439 1441 1444 1446 1448 1450 1452 1454 1455 1456 1456 1456 1455 1454 1452 1449 1447 1444 1440 1437 1434 1429 1425 1420 1416 1411 1406 1401 1396 1392 1386 1381 1376 1370 1364 1357 1352 1348
1423 1425 1427 1429 1432 1434 1437 1439 1442 1444 1446 1448 1450 1451 1452 1453 1452 1451 1450 1448 1446 1443 1440 1437 1433 1430 1426 1421 1417 1412 1408 1404 1399 1394 1388 1383 1378 1373 1368 1363 1357 1351 1346 1341
1419 1422 1425 1427 1430 1432 1435 1438 1440 1443 1445 1446 1448 1449 1449 1449 1448 1446 1445 1443 1440 1437 1434 1430 1426 1422 1418 1414 1410 1405 1400 1395 1391 1386 1381 1376 1371 1366 1361 1356 1350 1344 1339 1335
1416 1419 1422 1424 1427 1431 1434 1437 1439 1441 1443 1444 1445 1445 1445 1444 1443 1441 1439 1436 1433 1430 1427 1423 1419 1414 1410 1406 1402 1397 1392 1387 1382 1377 1372 1368 1363 1358 1353 1348 1342 1337 1331 1327
1415 1418 1421 1424 1427 1430 1433 1436 1438 1440 1441 1442 1442 1441 1441 1439 1438 1435 1433 1429 1426 1421 1418 1415 1411 1407 1402 1398 1394 1389 1384 1379 1374 1369 1364 1360 1355 1350 1345 1340 1334 1329 1324 1319
1415 1418 1421 1424 1427 1430 1432 1434 1436 1437 1438 1438 1438 1437 1436 1434 1432 1429 1426 1422 1419 1415 1411 1407 1403 1399 1394 1390 1386 1381 1376 1371 1366 1361 1356 1351 1346 1341 1337 1332 1327 1322 1317 1312
1415 1418 1421 1424 1427 1429 1431 1433 1434 1435 1435 1435 1434 1432 1430 1428 1426 1423 1419 1414 1411 1409 1404 1400 1396 1391 1387 1382 1377 1372 1368 1363 1358 1353 1348 1343 1338 1333 1329 1324 1319 1315 1310 1305
1416 1419 1422 1424 1427 1429 1430 1431 1432 1432 1431 1430 1429 1427 1424 1422 1419 1415 1412 1409 1404 1400 1396 1392 1388 1383 1379 1374 1369 1364 1359 1355 1350 1345 1340 1335 1330 1325 1321 1316 1311 1307 1302 1297
1417 1420 1422 1424 1426 1427 1428 1429 1428 1428 1427 1425 1424 1421 1418 1415 1412 1408 1403 1400 1397 1393 1388 1383 1379 1375 1371 1366 1361 1356 1351 1346 1341 1337 1332 1327 1323 1318 1313 1308 1303 1299 1294 1289
1418 1420 1422 1424 1424 1425 1425 1425 1424 1423 1422 1420 1418 1415 1412 1408 1404 1401 1397 1393 1389 1385 1379 1375 1371 1366 1362 1357 1352 1347 1342 1337 1333 1328 1324 1319 1314 1310 1305 1300 1295 1290 1286 1281
1418 1420 1421 1422 1422 1421 1421 1420 1419 1417 1415 1413 1411 1408 1406 1402 1398 1393 1389 1384 1380 1376 1370 1366 1362 1357 1353 1348 1343 1338 1334 1329 1325 1320 1316 1311 1306 1301 1297 1292 1287 1282 1278 1273
1418 1418 1419 1419 1418 1418 1417 1415 1413 1411 1409 1406 1403 1401 1398 1394 1390 1385 1381 1376 1371 1367 1362 1357 1353 1348 1343 1339 1334 1330 1325 1320 1316 1311 1307 1302 1298 1293 1288 1283 1279 1274 1270 1265
1416 1416 1416 1415 1414 1413 1412 1410 1408 1406 1403 1400 1396 1392 1389 1385 1381 1377 1372 1367 1362 1358 1353 1348 1344 1339 1335 1330 1325 1321 1316 1312 1308 1303 1298 1294 1289 1284 1280 1275 1270 1266 1261 1257